WB5MTX Weather Reports


Display with metric or nautical units.
time (UTC)temp
F
wind
direction
speed
MPH
gust
MPH
rain 1hr
in
rain 24hr
in
rain mn
in
humidity
%
barometer
mb
20260503044606 60 0 0.0 0.0 0.00 0.00 0.00 63 1019.7
20260503043103 61 0 0.0 0.0 0.00 0.00 0.00 62 1019.6
20260503041601 62 0 0.0 2.0 0.00 0.00 0.00 60 1019.7
20260503040110 62 218 0.0 2.0 0.00 0.00 0.00 60 1019.7
20260503034555 63 0 0.0 0.0 0.00 0.00 0.00 60 1019.8
20260503033106 63 0 0.0 0.0 0.00 0.00 0.00 60 1019.7
20260503031602 63 0 0.0 0.0 0.00 0.00 0.00 59 1019.7
20260503024556 65 0 0.0 0.0 0.00 0.00 0.00 57 1019.5
20260503023103 65 0 0.0 0.0 0.00 0.00 0.00 56 1019.4
20260503021605 66 0 0.0 0.0 0.00 0.00 0.00 55 1019.2
20260503020055 67 0 0.0 0.0 0.00 0.00 0.00 53 1019.1
20260503014550 68 0 0.0 0.0 0.00 0.00 0.00 51 1019.0
20260503013104 70 0 0.0 0.0 0.00 0.00 0.00 50 1018.9
20260503011602 71 0 0.0 0.0 0.00 0.00 0.00 47 1018.9
20260503010057 73 0 0.0 0.0 0.00 0.00 0.00 45 1018.8
20260503004553 74 0 0.0 0.0 0.00 0.00 0.00 43 1018.9
20260503003100 76 0 0.0 0.0 0.00 0.00 0.00 41 1018.9
20260503001552 76 0 0.0 0.0 0.00 0.00 0.00 40 1018.9
20260503000103 77 0 0.0 0.0 0.00 0.00 0.00 39 1018.8
20260502234551 77 0 0.0 0.0 0.00 0.00 0.00 37 1018.9
20260502233056 77 0 0.0 2.0 0.00 0.00 0.00 37 1018.9
20260502231552 75 0 0.0 0.0 0.00 0.00 0.00 40 1019.0
20260502230054 76 333 0.0 2.0 0.00 0.00 0.00 40 1019.0
20260502224553 79 0 0.0 2.0 0.00 0.00 0.00 33 1019.0
20260502223053 78 0 0.0 2.0 0.00 0.00 0.00 34 1019.1
20260502221554 78 0 0.0 6.0 0.00 0.00 0.00 35 1019.2
20260502220055 79 0 0.0 5.0 0.00 0.00 0.00 32 1019.3
20260502214554 79 0 0.0 2.0 0.00 0.00 0.00 37 1019.4
20260502213054 78 0 0.0 5.0 0.00 0.00 0.00 40 1019.5
20260502211555 77 0 0.0 6.0 0.00 0.00 0.00 37 1019.7
20260502210052 79 0 1.0 6.0 0.00 0.00 0.00 33 1019.9
20260502204556 79 0 0.0 4.0 0.00 0.00 0.00 34 1020.1
20260502203053 78 333 1.0 4.0 0.00 0.00 0.00 33 1020.2
20260502201554 79 262 1.0 7.0 0.00 0.00 0.00 34 1020.3
20260502200056 78 300 0.0 4.0 0.00 0.00 0.00 33 1020.5
20260502194555 77 266 1.0 6.0 0.00 0.00 0.00 34 1020.5
20260502193049 77 0 0.0 5.0 0.00 0.00 0.00 37 1020.6
20260502191600 77 0 0.0 5.0 0.00 0.00 0.00 39 1020.8
20260502190056 78 0 0.0 7.0 0.00 0.00 0.00 36 1020.9
20260502184550 75 0 0.0 6.0 0.00 0.00 0.00 38 1021.0
20260502183049 76 324 1.0 6.0 0.00 0.00 0.00 37 1021.2
20260502181551 77 0 1.0 6.0 0.00 0.00 0.00 34 1021.6
20260502163102 73 0 1.0 6.0 0.00 0.00 0.00 38 1022.3
20260502161601 71 0 0.0 3.0 0.00 0.00 0.00 49 1022.3
20260502151557 67 351 0.0 6.0 0.00 0.00 0.00 56 1022.2
20260502150110 66 0 1.0 6.0 0.00 0.00 0.00 64 1022.1
20260502130110 53 0 0.0 0.0 0.00 0.01 0.00 84 1021.4
20260502123101 51 262 0.0 3.0 0.00 0.01 0.00 86 1020.9
20260502121555 50 0 0.0 0.0 0.00 0.01 0.00 87 1020.8
20260502114553 49 0 0.0 0.0 0.00 0.01 0.00 86 1020.2
20260502113053 49 0 0.0 0.0 0.00 0.01 0.00 86 1020.0
20260502111556 49 0 0.0 0.0 0.00 0.01 0.00 86 1019.6
20260502110053 49 0 0.0 0.0 0.00 0.01 0.00 86 1019.5
20260502104551 50 0 0.0 0.0 0.00 0.01 0.00 85 1019.3
20260502103051 50 0 0.0 0.0 0.00 0.01 0.00 85 1019.2
20260502101552 50 0 0.0 3.0 0.00 0.01 0.00 84 1019.1
20260502080104 51 0 0.0 0.0 0.00 0.01 0.00 80 1019.0
20260502070053 52 0 0.0 0.0 0.00 0.01 0.00 81 1019.3
20260502064601 52 0 0.0 0.0 0.00 0.01 0.00 81 1019.2
20260502063120 52 0 0.0 0.0 0.00 0.01 0.00 81 1019.1
20260502061558 53 0 0.0 0.0 0.00 0.01 0.00 80 1019.1
20260502060058 53 0 0.0 0.0 0.00 0.01 0.00 79 1019.3
20260502054556 54 0 0.0 0.0 0.00 0.01 0.00 78 1019.4
20260502053101 54 0 0.0 0.0 0.00 0.01 0.00 77 1019.4
20260502051558 55 0 0.0 0.0 0.00 0.01 0.00 77 1019.5
20260502050054 55 0 0.0 0.0 0.00 0.01 0.00 72 1019.2